Location: Alexandria
(38.8050°N, 77.0470°W)
Time: 16:47:32

KAITUO 1B - Pass Details

Date: 26 February 2018
Orbit: 500 x 520 km, 97.5° (Epoch: 21 March)

Event Time Altitude Azimuth Distance (km) Brightness Sun altitude
Rises 06:04:58 0° 18° (NNE) 2,622 ? -8.5°
Reaches altitude 10° 06:07:08 10° 25° (NNE) 1,735 ? -8.1°
Maximum altitude 06:10:44 44° 99° (E) 714 ? -7.4°
Drops below altitude 10° 06:14:19 10° 173° (S) 1,733 ? -6.7°
Sets 06:16:28 0° 179° (S) 2,618 ? -6.3°
